DLH7MS EDDS-EDDC

Flight info

Callsign DLH7MS
Flight time 0h 51m
Altitude 23000
Route DKB9B DKB N869 ANELA Z715 ABKIS Q240 DRN
Aircraft A320/M-SDE3FGHIRWY/LB1

Departure

Time 2026-05-05 19:38
Airport Stuttgart Airport (EDDS)

Arrival

Time 2026-05-05 20:30
Airport Dresden Airport (EDDC)
Time Latitude Longitude Altitude Speed Heading
2026-05-05 18:52 48.68914 9.19513 1315 ft 0 kts 344°
2026-05-05 19:27 48.68892 9.19522 1314 ft 4 kts 351°
2026-05-05 19:27 48.68865 9.19525 1312 ft 4 kts
2026-05-05 19:27 48.68840 9.19515 1311 ft 4 kts 37°
2026-05-05 19:28 48.68829 9.19495 1312 ft 0 kts 74°
2026-05-05 19:31 48.68832 9.19513 1311 ft 4 kts 74°
2026-05-05 19:31 48.68847 9.19590 1310 ft 11 kts 74°
2026-05-05 19:31 48.68867 9.19699 1308 ft 11 kts 74°
2026-05-05 19:31 48.68888 9.19811 1304 ft 9 kts 76°
2026-05-05 19:32 48.68851 9.19886 1300 ft 9 kts 161°
2026-05-05 19:32 48.68821 9.19969 1296 ft 11 kts 74°
2026-05-05 19:32 48.68847 9.20084 1293 ft 12 kts 75°
2026-05-05 19:32 48.68874 9.20225 1290 ft 18 kts 73°
2026-05-05 19:33 48.68914 9.20433 1286 ft 24 kts 74°
2026-05-05 19:33 48.68963 9.20691 1279 ft 27 kts 74°
2026-05-05 19:33 48.69017 9.20973 1272 ft 29 kts 74°
2026-05-05 19:33 48.69069 9.21244 1269 ft 25 kts 73°
2026-05-05 19:34 48.69118 9.21511 1264 ft 25 kts 75°
2026-05-05 19:34 48.69166 9.21761 1261 ft 26 kts 74°
2026-05-05 19:34 48.69220 9.22046 1253 ft 30 kts 73°
2026-05-05 19:35 48.69305 9.22501 1236 ft 24 kts 75°
2026-05-05 19:35 48.69355 9.22764 1230 ft 28 kts 73°
2026-05-05 19:35 48.69409 9.23059 1224 ft 30 kts 75°
2026-05-05 19:35 48.69473 9.23376 1218 ft 33 kts 73°
2026-05-05 19:36 48.69526 9.23660 1212 ft 24 kts 73°
2026-05-05 19:36 48.69569 9.23887 1207 ft 23 kts 73°
2026-05-05 19:36 48.69605 9.24076 1203 ft 10 kts 74°
2026-05-05 19:36 48.69593 9.24191 1198 ft 13 kts 117°
2026-05-05 19:37 48.69525 9.24297 1192 ft 16 kts 147°
2026-05-05 19:37 48.69420 9.24319 1191 ft 15 kts 200°
2026-05-05 19:37 48.69370 9.24216 1193 ft 12 kts 253°
2026-05-05 19:37 48.69306 9.23871 1200 ft 69 kts 253°
2026-05-05 19:38 48.69113 9.22856 1220 ft 129 kts 254°
2026-05-05 19:38 48.68828 9.21326 1404 ft 162 kts 256°
2026-05-05 19:38 48.68535 9.19677 2076 ft 162 kts 257°
2026-05-05 19:38 48.68226 9.18033 2763 ft 166 kts 257°
2026-05-05 19:39 48.67880 9.16259 3131 ft 186 kts 256°
2026-05-05 19:39 48.67485 9.14271 3413 ft 209 kts 256°
2026-05-05 19:39 48.67058 9.12071 3736 ft 227 kts 260°
2026-05-05 19:39 48.67230 9.09657 4189 ft 239 kts 298°
2026-05-05 19:40 48.68152 9.07565 5033 ft 241 kts 313°
2026-05-05 19:40 48.69534 9.06163 5814 ft 247 kts 341°
2026-05-05 19:40 48.71254 9.05436 6349 ft 263 kts 344°
2026-05-05 19:40 48.73030 9.04640 7152 ft 268 kts 343°
2026-05-05 19:41 48.74849 9.04151 7960 ft 273 kts
2026-05-05 19:41 48.76720 9.04691 8768 ft 278 kts 21°
2026-05-05 19:41 48.78351 9.06289 9558 ft 284 kts 44°
2026-05-05 19:41 48.79581 9.08670 10302 ft 291 kts 53°
2026-05-05 19:42 48.80795 9.11279 10592 ft 315 kts 53°
2026-05-05 19:42 48.82094 9.14092 10911 ft 333 kts 53°
2026-05-05 19:42 48.83436 9.17007 11563 ft 340 kts 53°
2026-05-05 19:42 48.84800 9.19964 12273 ft 344 kts 53°
2026-05-05 19:43 48.86181 9.22949 12969 ft 347 kts 53°
2026-05-05 19:43 48.87577 9.25964 13643 ft 351 kts 53°
2026-05-05 19:43 48.89006 9.29053 14312 ft 354 kts 53°
2026-05-05 19:43 48.90429 9.32135 14953 ft 358 kts 54°
2026-05-05 19:44 48.91666 9.35445 15570 ft 363 kts 65°
2026-05-05 19:44 48.92610 9.39026 16184 ft 367 kts 67°
2026-05-05 19:44 48.93537 9.42604 16785 ft 370 kts 67°
2026-05-05 19:44 48.94497 9.46307 17382 ft 373 kts 67°
2026-05-05 19:45 48.95453 9.49995 17950 ft 376 kts 67°
2026-05-05 19:45 48.96418 9.53714 18502 ft 380 kts 67°
2026-05-05 19:45 48.97392 9.57473 19035 ft 383 kts 67°
2026-05-05 19:45 48.98373 9.61264 19574 ft 386 kts 67°
2026-05-05 19:46 48.99359 9.65086 20077 ft 389 kts 67°
2026-05-05 19:46 49.00350 9.68942 20590 ft 392 kts 67°
2026-05-05 19:46 49.01345 9.72826 21054 ft 396 kts 67°
2026-05-05 19:46 49.02345 9.76747 21545 ft 398 kts 67°
2026-05-05 19:47 49.03340 9.80637 22002 ft 401 kts 67°
2026-05-05 19:47 49.04357 9.84615 22449 ft 404 kts 67°
2026-05-05 19:47 49.05379 9.88621 22865 ft 407 kts 67°
2026-05-05 19:47 49.06403 9.92638 22985 ft 406 kts 68°
2026-05-05 19:48 49.07419 9.96636 23009 ft 403 kts 68°
2026-05-05 19:48 49.08428 10.00609 23008 ft 402 kts 68°
2026-05-05 19:48 49.09437 10.04591 23008 ft 402 kts 68°
2026-05-05 19:48 49.10443 10.08568 23008 ft 402 kts 68°
2026-05-05 19:49 49.11444 10.12547 23010 ft 402 kts 68°
2026-05-05 19:49 49.12105 10.15185 23010 ft 402 kts 68°
2026-05-05 19:49 49.13469 10.20502 23009 ft 401 kts 64°
2026-05-05 19:49 49.14841 10.24193 23010 ft 400 kts 53°
2026-05-05 19:50 49.16610 10.27449 23008 ft 398 kts 44°
2026-05-05 19:50 49.18565 10.30447 23007 ft 398 kts 44°
2026-05-05 19:50 49.20513 10.33453 23007 ft 398 kts 44°
2026-05-05 19:50 49.22428 10.36429 23006 ft 398 kts 44°
2026-05-05 19:51 49.24372 10.39453 23007 ft 398 kts 44°
2026-05-05 19:51 49.26321 10.42460 23008 ft 398 kts 44°
2026-05-05 19:51 49.28279 10.45460 23008 ft 398 kts 44°
2026-05-05 19:51 49.30241 10.48452 23008 ft 398 kts 44°
2026-05-05 19:52 49.32203 10.51449 23010 ft 398 kts 44°
2026-05-05 19:52 49.34164 10.54449 23010 ft 398 kts 44°
2026-05-05 19:52 49.36114 10.57463 23010 ft 398 kts 44°
2026-05-05 19:52 49.38037 10.60525 23012 ft 398 kts 45°
2026-05-05 19:53 49.39324 10.62614 23012 ft 398 kts 45°
2026-05-05 19:53 49.41219 10.65719 23013 ft 398 kts 46°
2026-05-05 19:53 49.43116 10.68816 23014 ft 398 kts 45°
2026-05-05 19:53 49.45037 10.71888 23016 ft 398 kts 45°
2026-05-05 19:54 49.46970 10.74930 23016 ft 398 kts 44°
2026-05-05 19:54 49.48911 10.77969 23015 ft 398 kts 44°
2026-05-05 19:54 49.50853 10.81007 23018 ft 398 kts 44°
2026-05-05 19:54 49.52790 10.84048 23018 ft 398 kts 44°
2026-05-05 19:55 49.54696 10.87059 23018 ft 398 kts 45°
2026-05-05 19:55 49.56626 10.90114 23018 ft 398 kts 45°
2026-05-05 19:55 49.58552 10.93175 23024 ft 398 kts 45°
2026-05-05 19:55 49.60478 10.96238 23031 ft 398 kts 45°
2026-05-05 19:56 49.62414 10.99285 23019 ft 398 kts 43°
2026-05-05 19:56 49.64410 11.02239 23026 ft 397 kts 41°
2026-05-05 19:56 49.66450 11.05114 23022 ft 397 kts 41°
2026-05-05 19:56 49.68512 11.07949 23026 ft 397 kts 40°
2026-05-05 19:57 49.70580 11.10777 23017 ft 397 kts 40°
2026-05-05 19:57 49.72645 11.13622 23017 ft 397 kts 41°
2026-05-05 19:57 49.74696 11.16481 23018 ft 397 kts 41°
2026-05-05 19:57 49.76738 11.19357 23023 ft 397 kts 41°
2026-05-05 19:58 49.78775 11.22244 23016 ft 397 kts 41°
2026-05-05 19:58 49.80812 11.25143 23016 ft 398 kts 41°
2026-05-05 19:58 49.82845 11.28045 23014 ft 398 kts 41°
2026-05-05 19:58 49.84877 11.30947 23015 ft 398 kts 41°
2026-05-05 19:59 49.86913 11.33852 23015 ft 398 kts 41°
2026-05-05 19:59 49.88947 11.36754 23017 ft 398 kts 41°
2026-05-05 19:59 49.90987 11.39660 23018 ft 398 kts 41°
2026-05-05 19:59 49.93022 11.42563 23017 ft 398 kts 41°
2026-05-05 20:00 49.95057 11.45474 23016 ft 398 kts 41°
2026-05-05 20:00 49.96933 11.48612 23016 ft 398 kts 49°
2026-05-05 20:00 49.98693 11.51953 23018 ft 399 kts 50°
2026-05-05 20:00 50.00442 11.55295 23017 ft 399 kts 50°
2026-05-05 20:01 50.02185 11.58647 23017 ft 399 kts 50°
2026-05-05 20:01 50.03923 11.62004 23017 ft 399 kts 50°
2026-05-05 20:01 50.05660 11.65364 23017 ft 398 kts 50°
2026-05-05 20:01 50.07408 11.68711 23016 ft 398 kts 49°
2026-05-05 20:02 50.09172 11.72041 23013 ft 398 kts 49°
2026-05-05 20:02 50.10922 11.75323 23013 ft 399 kts 49°
2026-05-05 20:02 50.12691 11.78643 23012 ft 399 kts 49°
2026-05-05 20:02 50.14459 11.81973 23010 ft 399 kts 49°
2026-05-05 20:03 50.16247 11.85352 23011 ft 399 kts 49°
2026-05-05 20:03 50.17989 11.88654 23012 ft 399 kts 49°
2026-05-05 20:03 50.19752 11.92002 23011 ft 399 kts 49°
2026-05-05 20:03 50.21511 11.95353 23011 ft 399 kts 49°
2026-05-05 20:04 50.23267 11.98696 23012 ft 399 kts 49°
2026-05-05 20:04 50.25026 12.02049 23012 ft 399 kts 49°
2026-05-05 20:04 50.26788 12.05402 22998 ft 400 kts 49°
2026-05-05 20:04 50.28560 12.08757 22990 ft 401 kts 49°
2026-05-05 20:05 50.30339 12.12117 22987 ft 401 kts 49°
2026-05-05 20:05 50.32123 12.15483 22976 ft 402 kts 49°
2026-05-05 20:05 50.33890 12.18859 22420 ft 401 kts 52°
2026-05-05 20:05 50.35361 12.22555 21835 ft 400 kts 61°
2026-05-05 20:06 50.36645 12.26395 21265 ft 395 kts 61°
2026-05-05 20:06 50.37915 12.30172 20328 ft 389 kts 61°
2026-05-05 20:06 50.39170 12.33893 19378 ft 384 kts 61°
2026-05-05 20:06 50.40414 12.37581 18467 ft 380 kts 60°
2026-05-05 20:07 50.41640 12.41218 17639 ft 375 kts 61°
2026-05-05 20:07 50.42849 12.44821 17190 ft 372 kts 61°
2026-05-05 20:07 50.44047 12.48399 16746 ft 369 kts 61°
2026-05-05 20:07 50.45233 12.51947 16304 ft 366 kts 61°
2026-05-05 20:08 50.46409 12.55472 15854 ft 363 kts 61°
2026-05-05 20:08 50.47574 12.58972 15419 ft 361 kts 61°
2026-05-05 20:08 50.48730 12.62449 14980 ft 358 kts 61°
2026-05-05 20:08 50.49874 12.65900 14545 ft 355 kts 61°
2026-05-05 20:09 50.51007 12.69324 14109 ft 352 kts 61°
2026-05-05 20:09 50.52131 12.72723 13679 ft 349 kts 61°
2026-05-05 20:09 50.53244 12.76096 13243 ft 346 kts 61°
2026-05-05 20:09 50.54346 12.79445 12795 ft 344 kts 61°
2026-05-05 20:10 50.55438 12.82770 12358 ft 341 kts 61°
2026-05-05 20:10 50.56522 12.86063 11910 ft 338 kts 61°
2026-05-05 20:10 50.57598 12.89334 11465 ft 334 kts 61°
2026-05-05 20:10 50.58639 12.92509 11031 ft 319 kts 61°
2026-05-05 20:11 50.59620 12.95509 10618 ft 306 kts 61°
2026-05-05 20:11 50.60571 12.98417 10376 ft 289 kts 61°
2026-05-05 20:11 50.61472 13.01164 10234 ft 285 kts 60°
2026-05-05 20:11 50.62393 13.03960 10092 ft 289 kts 61°
2026-05-05 20:12 50.63378 13.06707 9995 ft 287 kts 50°
2026-05-05 20:12 50.64870 13.08731 10004 ft 284 kts 26°
2026-05-05 20:12 50.66737 13.09638 10008 ft 282 kts
2026-05-05 20:12 50.68670 13.09319 10014 ft 281 kts 341°
2026-05-05 20:13 50.70374 13.07833 10007 ft 282 kts 319°
2026-05-05 20:13 50.71586 13.05416 10010 ft 284 kts 297°
2026-05-05 20:13 50.72102 13.02416 10005 ft 287 kts 274°
2026-05-05 20:13 50.71820 12.99307 10008 ft 290 kts 251°
2026-05-05 20:14 50.70766 12.96597 10008 ft 294 kts 229°
2026-05-05 20:14 50.69322 12.94305 10010 ft 295 kts 225°
2026-05-05 20:14 50.67822 12.92088 9953 ft 296 kts 224°
2026-05-05 20:14 50.66304 12.89898 9698 ft 295 kts 224°
2026-05-05 20:15 50.64792 12.87725 9447 ft 294 kts 224°
2026-05-05 20:15 50.63270 12.85588 9196 ft 293 kts 218°
2026-05-05 20:15 50.61444 12.84239 8945 ft 290 kts 192°
2026-05-05 20:15 50.59458 12.84188 8696 ft 285 kts 168°
2026-05-05 20:16 50.57665 12.85367 8442 ft 278 kts 143°
2026-05-05 20:16 50.56348 12.87508 8183 ft 270 kts 120°
2026-05-05 20:16 50.55671 12.90200 8029 ft 263 kts 97°
2026-05-05 20:16 50.55682 12.93048 7904 ft 260 kts 75°
2026-05-05 20:17 50.56336 12.95622 7774 ft 250 kts 54°
2026-05-05 20:17 50.57528 12.97609 7654 ft 252 kts 35°
2026-05-05 20:17 50.58886 12.99362 7523 ft 254 kts 40°
2026-05-05 20:17 50.60175 13.01266 7397 ft 254 kts 42°
2026-05-05 20:18 50.61436 13.03206 7281 ft 253 kts 43°
2026-05-05 20:18 50.62685 13.05107 7148 ft 252 kts 41°
2026-05-05 20:18 50.63995 13.06995 7029 ft 252 kts 40°
2026-05-05 20:18 50.65301 13.08836 6900 ft 251 kts 40°
2026-05-05 20:19 50.66606 13.10665 6768 ft 251 kts 40°
2026-05-05 20:19 50.67910 13.12492 6651 ft 251 kts 40°
2026-05-05 20:19 50.69210 13.14322 6523 ft 250 kts 40°
2026-05-05 20:19 50.70506 13.16152 6398 ft 250 kts 40°
2026-05-05 20:20 50.71781 13.17957 6274 ft 249 kts 40°
2026-05-05 20:20 50.73085 13.19807 6146 ft 249 kts 40°
2026-05-05 20:20 50.74351 13.21607 6022 ft 248 kts 40°
2026-05-05 20:20 50.75632 13.23426 5897 ft 248 kts 40°
2026-05-05 20:21 50.76911 13.25247 5772 ft 247 kts 40°
2026-05-05 20:21 50.78186 13.27066 5644 ft 247 kts 40°
2026-05-05 20:21 50.79458 13.28881 5521 ft 246 kts 40°
2026-05-05 20:21 50.80729 13.30693 5386 ft 246 kts 40°
2026-05-05 20:22 50.81997 13.32505 5273 ft 246 kts 40°
2026-05-05 20:22 50.83263 13.34316 5144 ft 245 kts 40°
2026-05-05 20:22 50.84524 13.36124 5019 ft 244 kts 40°
2026-05-05 20:22 50.85786 13.37933 4889 ft 244 kts 40°
2026-05-05 20:23 50.87037 13.39740 4769 ft 244 kts 43°
2026-05-05 20:23 50.88072 13.41865 4640 ft 244 kts 51°
2026-05-05 20:23 50.89238 13.43798 4514 ft 242 kts 39°
2026-05-05 20:23 50.90521 13.45522 4389 ft 241 kts 38°
2026-05-05 20:24 50.91803 13.47236 4285 ft 241 kts 38°
2026-05-05 20:24 50.93074 13.48959 4228 ft 237 kts 39°
2026-05-05 20:24 50.94286 13.50608 4228 ft 226 kts 39°
2026-05-05 20:24 50.95450 13.52192 4229 ft 214 kts 38°
2026-05-05 20:25 50.96549 13.53688 4228 ft 204 kts 38°
2026-05-05 20:25 50.97618 13.55144 4230 ft 201 kts 38°
2026-05-05 20:25 50.98674 13.56583 4194 ft 200 kts 38°
2026-05-05 20:25 50.99721 13.58011 4022 ft 195 kts 38°
2026-05-05 20:26 51.00737 13.59398 3770 ft 190 kts 38°
2026-05-05 20:26 51.01719 13.60740 3514 ft 181 kts 38°
2026-05-05 20:26 51.02641 13.62000 3295 ft 169 kts 38°
2026-05-05 20:26 51.03502 13.63177 3066 ft 158 kts 38°
2026-05-05 20:27 51.04306 13.64278 2882 ft 148 kts 38°
2026-05-05 20:27 51.05070 13.65323 2680 ft 143 kts 38°
2026-05-05 20:27 51.05817 13.66345 2491 ft 141 kts 38°
2026-05-05 20:27 51.06557 13.67358 2305 ft 140 kts 38°
2026-05-05 20:28 51.07292 13.68365 2121 ft 139 kts 38°
2026-05-05 20:28 51.08024 13.69368 1934 ft 139 kts 38°
2026-05-05 20:28 51.08755 13.70370 1745 ft 138 kts 38°
2026-05-05 20:28 51.09482 13.71367 1567 ft 138 kts 38°
2026-05-05 20:29 51.10207 13.72362 1382 ft 138 kts 38°
2026-05-05 20:29 51.10933 13.73359 1203 ft 138 kts 38°
2026-05-05 20:29 51.11659 13.74357 1018 ft 138 kts 38°
2026-05-05 20:29 51.12376 13.75342 833 ft 138 kts 39°
2026-05-05 20:30 51.13079 13.76309 752 ft 119 kts 40°
2026-05-05 20:30 51.13473 13.76856 739 ft 33 kts 41°
2026-05-05 20:30 51.13558 13.76974 735 ft 19 kts 41°
2026-05-05 20:30 51.13678 13.77143 730 ft 28 kts 41°
2026-05-05 20:31 51.13844 13.77371 723 ft 33 kts 40°
2026-05-05 20:31 51.13893 13.77518 720 ft 14 kts 118°
2026-05-05 20:31 51.13827 13.77647 718 ft 16 kts 131°
2026-05-05 20:31 51.13763 13.77709 716 ft 12 kts 186°
2026-05-05 20:32 51.13697 13.77637 718 ft 10 kts 221°
2026-05-05 20:32 51.13626 13.77537 720 ft 14 kts 221°
2026-05-05 20:32 51.13563 13.77453 723 ft 11 kts 220°
2026-05-05 20:32 51.13497 13.77365 729 ft 13 kts 220°
2026-05-05 20:33 51.13419 13.77258 734 ft 15 kts 221°
2026-05-05 20:33 51.13335 13.77142 740 ft 18 kts 221°
2026-05-05 20:33 51.13239 13.77011 743 ft 19 kts 221°
2026-05-05 20:33 51.13136 13.76866 747 ft 20 kts 220°
2026-05-05 20:34 51.13033 13.76724 750 ft 20 kts 221°
2026-05-05 20:34 51.12927 13.76576 749 ft 21 kts 220°
2026-05-05 20:34 51.12826 13.76454 753 ft 15 kts 194°
2026-05-05 20:34 51.12750 13.76531 751 ft 13 kts 131°
2026-05-05 20:35 51.12706 13.76611 750 ft 0 kts 131°
2026-05-05 20:35 51.12698 13.76619 751 ft 2 kts 156°
2026-05-05 20:35 51.12678 13.76609 749 ft 3 kts 202°
2026-05-05 20:35 51.12661 13.76589 750 ft 3 kts 224°
2026-05-05 20:36 51.12636 13.76553 750 ft 2 kts 222°
2026-05-05 20:36 51.12630 13.76546 750 ft 1 kts 221°
2026-05-05 20:36 51.12629 13.76544 750 ft 0 kts 221°